Miscellaneous Local Product
Issued by NWS Hastings, NE

Home | Current Version | Previous Version | Graphics & Text | Print | Product List | Glossary On
Versions: 1 2 3 4 5 6 7 8 9 10 11 12 13 14 15 16 17 18 19 20 21 22 23 24 25 26 27 28 29 30 31 32 33 34 35 36 37 38 39 40 41 42 43 44 45 46 47 48 49 50
000
AXUS43 KGID 210702
MISGRI

GID CWA HOURLY WEATHER ROUNDUP
NATIONAL WEATHER SERVICE HASTINGS NE
200 AM CDT SUN SEP 21 2014

NOTE: "FAIR" INDICATES FEW OR NO CLOUDS BELOW 12,000 FEET WITH NO
SIGNIFICANT WEATHER AND/OR OBSTRUCTIONS TO VISIBILITY.

...SOUTH CENTRAL NEBRASKA...

CITY           SKY/WX    TMP DP  RH WIND       PRES   REMARKS
GRAND ISLAND   CLEAR     56  48  74 W5        30.17R
HASTINGS       CLEAR     57  48  72 NW3       30.17R
KEARNEY        CLEAR     55  46  71 W6        30.19S
ORD            CLEAR     51  43  74 NW3       30.17R
YORK           CLEAR     54  50  87 NW8       30.14S
AURORA         CLEAR     53  49  87 W5        30.16R
LEXINGTON      CLEAR     51  48  87 W7        30.22R
HOLDREGE       CLEAR     56  47  72 CALM      30.20S
HEBRON         CLEAR     58  51  77 CALM      30.14R

...NEBRASKA PANHANDLE...

CITY           SKY/WX    TMP DP  RH WIND       PRES   REMARKS
CHADRON        CLEAR     46  41  82 CALM      30.31R
ALLIANCE       CLEAR     41  38  89 W6        30.32R
SCOTTSBLUFF    PTCLDY    53  43  68 CALM      30.33R
SIDNEY         CLOUDY    59  43  55 NE6       30.34R

...WESTERN AND NORTH CENTRAL NEBRASKA...

CITY           SKY/WX    TMP DP  RH WIND       PRES   REMARKS
VALENTINE      CLEAR     49  39  68 W7        30.23R
AINSWORTH      CLEAR     49  40  72 W8        30.22R
ONEILL         CLEAR     51  45  78 W7        30.17S
BROKEN BOW     CLEAR     55  43  63 CALM      30.21R
IMPERIAL       CLEAR     54  45  71 CALM      30.28R
NORTH PLATTE   CLEAR     49  44  83 NW3       30.25R
MCCOOK         CLEAR     58  47  66 NW3       30.24R

...EASTERN NEBRASKA...

CITY           SKY/WX    TMP DP  RH WIND       PRES   REMARKS
NORFOLK        CLEAR     55  47  74 W9        30.13R
SO SIOUX CITY  CLEAR     57  50  77 W7        30.08R
TEKAMAH        CLEAR     55  51  86 W7        30.07S
COLUMBUS       CLEAR     52  46  82 W5        30.13S
ALBION         CLEAR     48  44  86 CALM      30.15S
OMAHA EPPLEY   CLEAR     61  54  77 CALM      30.08R
OFFUTT AFB     CLEAR     59  56  90 NW5       30.07R
MILLARD        CLEAR     62  52  70 CALM      30.08R
LINCOLN        CLEAR     57  51  80 N5        30.11R
NEBRASKA CITY    N/A     63  49  60 CALM      30.09R
BEATRICE       CLEAR     56  51  83 NW5       30.11R
FALLS CITY     CLEAR     64  56  75 N5        30.07R

...NORTHERN KANSAS...

CITY           SKY/WX    TMP DP  RH WIND       PRES   REMARKS
GOODLAND       PTCLDY    62  48  60 NE14      30.28R
HILL CITY      CLEAR     65  49  56 N8        30.19R
NORTON         SUNNY     59  45  58 N8        30.19S
SMITH CENTER   CLEAR     64  46  52 N16       30.16R
BELOIT         CLEAR     66  52  59 N9G16     30.12R
HAYS           CLEAR     68  54  60 N16       30.15R
RUSSELL        CLEAR     67  59  75 N14       30.12R
CONCORDIA      CLEAR     65  52  62 N8        30.12R
SALINA         CLEAR     68  65  90 NW5       30.09R
TOPEKA         CLEAR     69  65  86 N15       30.04R



USA.gov is the U.S. government's official web portal to all federal, state and local government web resources and services.